Location: Chircca
(13.7944°S, 72.0608°W)
Time: 05:53:34
(UTC+00:00)

Cosmos 1356 Rocket - Pass Details

Date: 14 July 2020
Orbit: 542 x 599 km, 81.2° (Epoch: 14 August)

Event Time Altitude Azimuth Distance (km) Brightness Sun altitude
Rises 00:04:04 0° 359° (N) 2,723 7.1 -21.0°
Reaches altitude 10° 00:06:14 10° 1° (N) 1,826 6.2 -21.5°
Enters shadow 00:09:45 62° 36° (NE) 622 3.4 -22.4°
